Location: Alma
(38.7220°N, 88.9090°W)
Time: 01:43:35
(UTC-06:00)

ISS - Pass Details

Date: 26 October 2019
Orbit: 412 x 421 km, 51.6° (Epoch: 15 November)

Event Time Altitude Azimuth Distance (km) Brightness Sun altitude
Exits shadow 05:53:12 35° 229° (SW) 701 -3.0 -16.7°
Maximum altitude 05:54:30 88° 145° (SE) 425 -3.8 -16.5°
Drops below altitude 10° 05:57:53 10° 52° (NE) 1,505 -0.2 -15.8°
Sets 06:00:07 0° 52° (NE) 2,426 0.9 -15.4°
